MINOTAUR 4 DEB, 52037

Orbit data source: Space-Track

MINOTAUR 4 DEB, 52037 is space debris in LEO originally from a launch on Wed, 15 Jul 2020 UTC launched from the Wallops Island (WLPIS). Debris objects in space refer to the collection of defunct objects orbiting the Earth. Examples of debris include non-operational satellites, rocket bodies, and fragments generated from explosions, collisions, or faulty payload assembly.

Loading next visibility...
Identifier
52037, 2020-046AB
Orbit
LEO
Country
Flag of USUS
Related business
Manufacturer
NGIS FSG
Mission
Spacecraft
Bus & Motor
Unknown
Mass
Unknown
Launch date (UTC)
2020-07-15 (5 years ago)
Launch vehicle
Unknown
Launch site
Wallops Island (WLPIS)
Object type
Payload
Rocket body
Debris
Shape & HBR
Unknown shape, 0.1 m
Radar Cross Section
Small (<0.1 m²)

Expand to show TLE details & history
Last TLE update: 13 hours ago

TLE from 13 hours ago
0 MINOTAUR 4 DEB
1 52037U 20046AB  25350.64183971  .00001088  00000-0  98035-4 0  9999
2 52037  53.9800 321.0194 0007398 196.4501 163.6260 15.03826963214405
Epoch: 2025-12-16T15:24Z
TLE epoch observation values (Epoch: 2025-12-16T15:24:14.950Z)
Latitude
-0.00003°
Longitude
4.43396°
Altitude
561.006 km
Speed
7.579 km/s
True Right ascension
21h 24m 04s
True Declination
0° 00' 00"
Sunlit
Object was in daylight at epoch
Visualization orbit readout
Latitude
Unknown
Longitude
Unknown
Altitude
Unknown
Speed
Unknown
Apparent Right ascension
Unknown
Apparent Declination
Unknown
Sunlit
N/A
Visualization observer readout
Local Sidereal Time
02:42:40
Azimuth
Unknown
Elevation
Unknown
Doppler factor
Unknown
Orbital elements
Apogee altitude
560.361 km
Perigee altitude
550.103 km
Semi-major axis
6,933.369 km
Eccentricity
0.00074
Inclination
53.98°
RAAN
321.0194°
Arg. of periapsis
196.4501°
True anomaly
163.64988°
Mean anomaly
163.626°
Eccentric anomaly
163.63794°
Mean motion
3.75947 °/min
Orbital period
95.76 mins
BSTAR
0.000098035
Loading maneuver chart data...
Computing Atmospheric mass density...

Documentation

Showing up to 5 results
|